FW2619 Weather Reports


Display with metric or nautical units.
time (UTC)temp
F
wind
direction
speed
MPH
gust
MPH
rain 1hr
in
rain 24hr
in
rain mn
in
humidity
%
barometer
mb
20220516204906 77 300 10.0 24.0 0.00 0.00 0.00 20 1007.5
20220516204404 78 297 13.0 35.0 0.00 0.00 0.00 20 1007.5
20220516203908 79 307 9.0 35.0 0.00 0.00 0.00 19 1007.5
20220516203405 79 319 5.0 15.0 0.00 0.00 0.00 18 1007.4
20220516201904 80 0 3.0 9.0 0.00 0.00 0.00 17 1007.1
20220516201407 80 350 5.0 8.0 0.00 0.00 0.00 17 1007.1
20220516200904 81 337 3.0 7.0 0.00 0.00 0.00 17 1007.1
20220516200407 81 348 3.0 10.0 0.00 0.00 0.00 16 1007.1
20220516194906 82 331 2.0 6.0 0.00 0.00 0.00 16 1007.0
20220516194406 82 342 1.0 5.0 0.00 0.00 0.00 16 1007.1
20220516193908 82 342 2.0 13.0 0.00 0.00 0.00 17 1007.2
20220516193408 81 349 5.0 13.0 0.00 0.00 0.00 17 1007.3
20220516191907 81 355 2.0 9.0 0.00 0.00 0.00 19 1007.5
20220516191411 82 342 2.0 9.0 0.00 0.00 0.00 19 1007.4
20220516190905 82 23 1.0 6.0 0.00 0.00 0.00 18 1007.5
20220516190409 83 16 3.0 8.0 0.00 0.00 0.00 19 1007.5
20220516184905 84 11 1.0 7.0 0.00 0.00 0.00 20 1007.7
20220516184408 84 29 0.0 3.0 0.00 0.00 0.00 20 1007.8
20220516183907 83 29 0.0 2.0 0.00 0.00 0.00 21 1008.0
20220516183405 83 30 0.0 3.0 0.00 0.00 0.00 20 1008.1
20220516181907 82 350 0.0 3.0 0.00 0.00 0.00 21 1008.4
20220516181405 82 350 0.0 3.0 0.00 0.00 0.00 22 1008.5
20220516180906 81 350 0.0 3.0 0.00 0.00 0.00 23 1008.6
20220516180407 82 355 0.0 3.0 0.00 0.00 0.00 21 1008.8
20220516174908 80 267 0.0 2.0 0.00 0.00 0.00 23 1009.1
20220516174407 80 267 0.0 1.0 0.00 0.00 0.00 22 1009.2
20220516173906 80 266 0.0 2.0 0.00 0.00 0.00 24 1009.3
20220516173405 79 266 0.0 3.0 0.00 0.00 0.00 25 1009.4
20220516171906 79 266 0.0 3.0 0.00 0.00 0.00 22 1009.6
20220516171404 79 266 0.0 3.0 0.00 0.00 0.00 23 1009.7
20220516170904 78 266 0.0 0.0 0.00 0.00 0.00 25 1009.8
20220516170409 77 266 0.0 3.0 0.00 0.00 0.00 25 1009.8
20220516164904 76 266 0.0 0.0 0.00 0.00 0.00 32 1010.1
20220516164406 75 266 0.0 1.0 0.00 0.00 0.00 33 1010.2
20220516163905 74 266 0.0 0.0 0.00 0.00 0.00 33 1010.3
20220516163404 74 266 0.0 0.0 0.00 0.00 0.00 33 1010.4
20220516161904 72 266 0.0 1.0 0.00 0.00 0.00 36 1010.7
20220516161407 72 266 0.0 1.0 0.00 0.00 0.00 37 1010.8
20220516160905 72 266 0.0 1.0 0.00 0.00 0.00 37 1011.0
20220516160404 71 266 0.0 1.0 0.00 0.00 0.00 37 1011.2
20220516154905 68 266 0.0 1.0 0.00 0.00 0.00 40 1011.6
20220516154408 67 266 0.0 1.0 0.00 0.00 0.00 40 1011.7
20220516153907 66 266 0.0 1.0 0.00 0.00 0.00 42 1011.8
20220516153406 65 266 0.0 0.0 0.00 0.00 0.00 45 1011.9
20220516151906 63 266 0.0 0.0 0.00 0.00 0.00 47 1012.1
20220516151409 63 266 0.0 0.0 0.00 0.00 0.00 48 1012.2
20220516150907 62 266 0.0 0.0 0.00 0.00 0.00 48 1012.2
20220516150406 62 266 0.0 0.0 0.00 0.00 0.00 49 1012.2
20220516144906 61 266 0.0 0.0 0.00 0.00 0.00 51 1012.3
20220516144405 61 266 0.0 0.0 0.00 0.00 0.00 51 1012.3
20220516143908 61 266 0.0 0.0 0.00 0.00 0.00 51 1012.3
20220516143407 61 266 0.0 0.0 0.00 0.00 0.00 52 1012.3
20220516141908 59 266 0.0 0.0 0.00 0.00 0.00 53 1012.4
20220516141406 59 266 0.0 0.0 0.00 0.00 0.00 55 1012.5
20220516140905 57 266 0.0 0.0 0.00 0.00 0.00 57 1012.5
20220516140409 56 266 0.0 0.0 0.00 0.00 0.00 63 1012.5
20220516134904 54 266 0.0 0.0 0.00 0.00 0.00 68 1012.6
20220516134406 54 266 0.0 0.0 0.00 0.00 0.00 68 1012.8
20220516133905 54 266 0.0 0.0 0.00 0.00 0.00 69 1012.8
20220516133404 53 266 0.0 0.0 0.00 0.00 0.00 68 1012.8
20220516131909 51 266 0.0 0.0 0.00 0.00 0.00 72 1012.8
20220516131406 50 266 0.0 0.0 0.00 0.00 0.00 73 1012.9
20220516130905 50 266 0.0 0.0 0.00 0.00 0.00 76 1012.9
20220516130405 49 266 0.0 0.0 0.00 0.00 0.00 77 1012.9
20220516124906 47 284 0.0 0.0 0.00 0.00 0.00 80 1012.9
20220516124406 46 284 0.0 0.0 0.00 0.00 0.00 80 1013.0
20220516123905 46 284 0.0 0.0 0.00 0.00 0.00 80 1012.9
20220516123404 45 284 0.0 0.0 0.00 0.00 0.00 81 1013.0
20220516121904 45 284 0.0 0.0 0.00 0.00 0.00 81 1013.0
20220516121407 45 284 0.0 0.0 0.00 0.00 0.00 81 1013.0
20220516120907 45 284 0.0 0.0 0.00 0.00 0.00 81 1013.0
20220516120405 44 284 0.0 0.0 0.00 0.00 0.00 81 1013.0
20220516114907 45 284 0.0 0.0 0.00 0.00 0.00 80 1012.8
20220516114405 45 284 0.0 0.0 0.00 0.00 0.00 80 1012.8
20220516113904 45 284 0.0 0.0 0.00 0.00 0.00 79 1012.9
20220516113404 45 284 0.0 0.0 0.00 0.00 0.00 78 1012.9
20220516111905 45 284 0.0 0.0 0.00 0.00 0.00 77 1012.7
20220516111408 45 284 0.0 0.0 0.00 0.00 0.00 77 1012.8
20220516110907 46 284 0.0 0.0 0.00 0.00 0.00 77 1012.8
20220516110406 46 284 0.0 0.0 0.00 0.00 0.00 76 1012.8
20220516104903 46 284 0.0 0.0 0.00 0.00 0.00 75 1012.8
20220516104406 46 284 0.0 0.0 0.00 0.00 0.00 75 1012.9
20220516103905 46 284 0.0 0.0 0.00 0.00 0.00 75 1012.9
20220516103408 46 284 0.0 2.0 0.00 0.00 0.00 76 1012.8
20220516101908 47 284 0.0 0.0 0.00 0.00 0.00 75 1012.6
20220516101406 47 284 0.0 0.0 0.00 0.00 0.00 74 1012.7
20220516100906 48 284 0.0 0.0 0.00 0.00 0.00 73 1012.7
20220516100404 48 284 0.0 0.0 0.00 0.00 0.00 72 1012.7
20220516094906 48 284 0.0 0.0 0.00 0.00 0.00 71 1012.5
20220516094405 48 284 0.0 0.0 0.00 0.00 0.00 72 1012.5
20220516093908 48 284 0.0 0.0 0.00 0.00 0.00 71 1012.4
20220516093407 48 284 0.0 0.0 0.00 0.00 0.00 71 1012.5
20220516091908 49 284 0.0 0.0 0.00 0.00 0.00 70 1012.7
20220516091407 49 284 0.0 0.0 0.00 0.00 0.00 70 1012.7
20220516090906 49 284 0.0 0.0 0.00 0.00 0.00 70 1012.8
20220516090405 49 284 0.0 0.0 0.00 0.00 0.00 69 1012.8
20220516084907 50 284 0.0 0.0 0.00 0.00 0.00 69 1012.9
20220516084404 50 284 0.0 0.0 0.00 0.00 0.00 68 1012.9
20220516083904 50 284 0.0 0.0 0.00 0.00 0.00 68 1013.0
20220516083409 50 284 0.0 2.0 0.00 0.00 0.00 67 1013.1
20220516081904 50 284 0.0 2.0 0.00 0.00 0.00 68 1013.2
20220516081408 51 284 0.0 0.0 0.00 0.00 0.00 68 1013.3
20220516080907 51 284 0.0 0.0 0.00 0.00 0.00 67 1013.4
20220516080407 51 284 0.0 0.0 0.00 0.00 0.00 67 1013.5
20220516074907 52 284 0.0 0.0 0.00 0.00 0.00 66 1013.6
20220516074406 52 284 0.0 0.0 0.00 0.00 0.00 66 1013.7
20220516073905 52 284 0.0 0.0 0.00 0.00 0.00 66 1013.7
20220516073405 52 284 0.0 0.0 0.00 0.00 0.00 65 1013.9
20220516071905 53 284 0.0 0.0 0.00 0.00 0.00 63 1014.1
20220516071404 53 284 0.0 0.0 0.00 0.00 0.00 63 1014.1
20220516070908 53 284 0.0 0.0 0.00 0.00 0.00 63 1014.2
20220516070408 53 284 0.0 1.0 0.00 0.00 0.00 63 1014.3
20220516064908 54 284 0.0 0.0 0.00 0.00 0.00 61 1014.3
20220516064406 54 284 0.0 0.0 0.00 0.00 0.00 60 1014.4
20220516063905 54 284 0.0 0.0 0.00 0.00 0.00 60 1014.5
20220516063405 54 284 0.0 0.0 0.00 0.00 0.00 59 1014.5
20220516061907 55 284 0.0 0.0 0.00 0.00 0.00 58 1014.6
20220516061406 55 284 0.0 0.0 0.00 0.00 0.00 57 1014.7
20220516060904 56 284 0.0 0.0 0.00 0.00 0.00 56 1014.8
20220516060404 56 284 0.0 0.0 0.00 0.00 0.00 56 1014.7
20220516054905 57 284 0.0 0.0 0.00 0.00 0.00 53 1014.7
20220516054408 57 284 0.0 0.0 0.00 0.00 0.00 52 1014.7
20220516053907 58 284 0.0 0.0 0.00 0.00 0.00 52 1014.8
20220516053406 58 284 0.0 0.0 0.00 0.00 0.00 51 1014.9
20220516051907 60 284 0.0 0.0 0.00 0.00 0.00 47 1015.0
20220516051405 60 284 0.0 0.0 0.00 0.00 0.00 46 1015.0
20220516050905 60 284 0.0 0.0 0.00 0.00 0.00 45 1015.0
20220516050404 61 284 0.0 0.0 0.00 0.00 0.00 45 1014.9
20220516044904 62 284 0.0 0.0 0.00 0.00 0.00 42 1015.0
20220516044407 63 284 0.0 0.0 0.00 0.00 0.00 42 1015.0
20220516043906 63 284 0.0 0.0 0.00 0.00 0.00 41 1015.0
20220516043405 64 284 0.0 3.0 0.00 0.00 0.00 40 1015.0
20220516041907 65 284 1.0 3.0 0.00 0.00 0.00 39 1014.8
20220516041405 65 284 2.0 3.0 0.00 0.00 0.00 38 1014.7
20220516040904 65 284 2.0 3.0 0.00 0.00 0.00 38 1014.6
20220516040404 65 284 2.0 6.0 0.00 0.00 0.00 38 1014.6
20220516034905 66 283 2.0 6.0 0.00 0.00 0.00 38 1014.3
20220516034409 66 283 2.0 7.0 0.00 0.00 0.00 37 1014.3
20220516033907 67 287 3.0 7.0 0.00 0.00 0.00 37 1014.2
20220516033406 67 307 2.0 8.0 0.00 0.00 0.00 37 1014.1
20220516031906 67 292 2.0 6.0 0.00 0.00 0.00 36 1014.0
20220516031405 68 292 2.0 7.0 0.00 0.00 0.00 35 1013.9
20220516030904 68 296 2.0 7.0 0.00 0.00 0.00 35 1013.7
20220516030408 68 333 2.0 5.0 0.00 0.00 0.00 34 1013.6
20220516024904 69 5 2.0 5.0 0.00 0.00 0.00 33 1013.3
20220516024406 69 0 2.0 6.0 0.00 0.00 0.00 33 1013.3
20220516023905 70 4 1.0 6.0 0.00 0.00 0.00 33 1013.3
20220516023404 70 355 2.0 5.0 0.00 0.00 0.00 33 1013.3
20220516021905 70 355 1.0 3.0 0.00 0.00 0.00 32 1013.3
20220516021408 70 353 3.0 8.0 0.00 0.00 0.00 32 1013.4
20220516020907 71 9 1.0 6.0 0.00 0.00 0.00 32 1013.4
20220516020406 71 22 0.0 5.0 0.00 0.00 0.00 32 1013.4
20220516014906 72 350 1.0 3.0 0.00 0.00 0.00 30 1013.2
20220516014403 73 349 2.0 7.0 0.00 0.00 0.00 30 1013.1
20220516013908 74 17 0.0 7.0 0.00 0.00 0.00 30 1013.1
20220516013405 74 37 0.0 3.0 0.00 0.00 0.00 29 1013.0
20220516011907 74 55 0.0 3.0 0.00 0.00 0.00 29 1012.9
20220516011405 74 51 0.0 3.0 0.00 0.00 0.00 29 1012.8
20220516010905 74 18 1.0 6.0 0.00 0.00 0.00 29 1012.7
20220516010409 74 22 1.0 7.0 0.00 0.00 0.00 29 1012.8
20220516004910 75 32 2.0 6.0 0.00 0.00 0.00 28 1012.7
20220516004407 76 40 0.0 3.0 0.00 0.00 0.00 28 1012.6
20220516003906 76 40 0.0 1.0 0.00 0.00 0.00 28 1012.6
20220516003406 77 77 0.0 2.0 0.00 0.00 0.00 28 1012.6
20220516001906 78 47 1.0 3.0 0.00 0.00 0.00 27 1012.5
20220516001404 78 17 3.0 7.0 0.00 0.00 0.00 26 1012.6
20220516000904 78 15 2.0 8.0 0.00 0.00 0.00 26 1012.6
20220516000408 79 51 3.0 8.0 0.00 0.00 0.00 25 1012.6
20220515234904 78 15 0.0 3.0 0.00 0.00 0.00 26 1012.5
20220515234406 79 11 2.0 8.0 0.00 0.00 0.00 26 1012.5
20220515233905 79 17 1.0 7.0 0.00 0.00 0.00 25 1012.4
20220515233404 79 5 1.0 6.0 0.00 0.00 0.00 25 1012.4
20220515231905 79 0 3.0 7.0 0.00 0.00 0.00 25 1012.6
20220515231408 79 0 1.0 7.0 0.00 0.00 0.00 25 1012.6
20220515230907 79 38 0.0 5.0 0.00 0.00 0.00 25 1012.6
20220515230406 78 40 0.0 6.0 0.00 0.00 0.00 25 1012.7
20220515224908 80 45 1.0 6.0 0.00 0.00 0.00 24 1012.8
20220515224407 81 51 0.0 5.0 0.00 0.00 0.00 24 1012.7
20220515223906 81 53 0.0 2.0 0.00 0.00 0.00 23 1012.7
20220515223405 80 53 0.0 7.0 0.00 0.00 0.00 24 1012.8
20220515221906 80 46 2.0 5.0 0.00 0.00 0.00 26 1012.9
20220515221404 80 329 0.0 5.0 0.00 0.00 0.00 25 1013.1
20220515220904 79 329 1.0 3.0 0.00 0.00 0.00 25 1013.1
20220515220408 79 350 0.0 5.0 0.00 0.00 0.00 25 1013.1
20220515214904 78 357 1.0 6.0 0.00 0.00 0.00 26 1013.4
20220515214405 78 18 1.0 6.0 0.00 0.00 0.00 26 1013.5
20220515213904 78 15 2.0 6.0 0.00 0.00 0.00 27 1013.6
20220515213404 78 355 1.0 7.0 0.00 0.00 0.00 26 1013.6
20220515211904 77 24 1.0 6.0 0.00 0.00 0.00 26 1014.0
20220515211407 77 46 2.0 7.0 0.00 0.00 0.00 28 1014.1
20220515210905 77 353 3.0 9.0 0.00 0.00 0.00 27 1014.1
20220515210404 78 11 2.0 7.0 0.00 0.00 0.00 27 1014.2